VU36VU-14 Weather Reports


time (UTC)temp
F
wind
direction
speed
knots
gust
knots
rain 1hr
in
rain 24hr
in
rain mn
in
humidity
%
barometer
mb
20260509045402 91 340 4.3 32.2 0.00 0.92 0.28 54 1009.0
20260509045203 91 340 4.3 32.2 0.00 0.92 0.28 54 1009.0
20260509043022 89 7 7.0 33.9 0.00 0.92 0.28 57 1009.0
20260509042818 89 7 7.0 33.9 0.00 0.92 0.28 57 1009.0
20260509042618 89 7 7.0 33.9 0.00 0.92 0.28 57 1009.0
20260509042418 89 7 7.0 33.9 0.00 0.92 0.28 57 1009.0
20260509042219 89 7 7.0 33.9 0.00 0.92 0.28 57 1009.0
20260509041818 89 7 7.0 33.9 0.00 0.92 0.28 57 1009.0
20260509041618 89 7 7.0 33.9 0.00 0.92 0.28 57 1009.0
20260509041418 88 12 8.7 33.9 0.00 0.92 0.28 59 1009.0
20260509041218 88 12 8.7 33.9 0.00 0.92 0.28 59 1009.0
20260509041019 88 12 8.7 33.9 0.00 0.92 0.28 59 1009.0
20260509040818 88 12 8.7 33.9 0.00 0.92 0.28 59 1009.0
20260509040618 88 12 8.7 33.9 0.00 0.92 0.28 59 1009.0
20260509040418 88 12 8.7 33.9 0.00 0.92 0.28 59 1009.0
20260509040218 88 12 8.7 33.9 0.00 0.92 0.28 59 1009.0
20260509035818 88 10 10.4 34.8 0.00 0.92 0.28 61 1009.0
20260509035618 88 10 10.4 34.8 0.00 0.92 0.28 61 1009.0
20260509035418 88 10 10.4 34.8 0.00 0.92 0.28 61 1009.0
20260509035218 88 10 10.4 34.8 0.00 0.92 0.28 61 1009.0
20260509035019 88 10 10.4 34.8 0.00 0.92 0.28 61 1009.0
20260509034818 88 10 10.4 34.8 0.00 0.92 0.28 61 1009.0
20260509034618 88 10 10.4 34.8 0.00 0.92 0.28 61 1009.0
20260509034418 87 9 12.2 35.6 0.00 0.92 0.28 63 1009.0
20260509034218 87 9 12.2 35.6 0.00 0.92 0.28 63 1009.0
20260509034019 87 9 12.2 35.6 0.00 0.92 0.28 63 1009.0
20260509033618 87 9 12.2 35.6 0.00 0.92 0.28 63 1009.0
20260509033418 87 9 12.2 35.6 0.00 0.92 0.28 63 1009.0
20260509033218 87 9 12.2 35.6 0.00 0.92 0.28 63 1009.0
20260509033022 87 9 12.2 35.6 0.00 0.92 0.28 63 1009.0
20260509032818 86 6 13.0 35.6 0.00 0.92 0.28 65 1009.0
20260509032618 86 6 13.0 35.6 0.00 0.92 0.28 65 1009.0
20260509032418 86 6 13.0 35.6 0.00 0.92 0.28 65 1009.0
20260509032218 86 6 13.0 35.6 0.00 0.92 0.28 65 1009.0
20260509032019 86 6 13.0 35.6 0.00 0.92 0.28 65 1009.0
20260509031618 86 6 13.0 35.6 0.00 0.92 0.28 65 1009.0
20260509031418 85 4 14.8 35.6 0.00 0.92 0.28 68 1009.0
20260509031218 85 4 14.8 35.6 0.00 0.92 0.28 68 1009.0
20260509031019 85 4 14.8 35.6 0.00 0.92 0.28 68 1009.0
20260509030818 85 4 14.8 35.6 0.00 0.92 0.28 68 1009.0
20260509030618 85 4 14.8 35.6 0.00 0.92 0.28 68 1009.0
20260509030418 85 4 14.8 35.6 0.00 0.92 0.28 68 1009.0
20260509030218 85 4 14.8 35.6 0.00 0.92 0.28 68 1009.0
20260509030022 84 360 15.6 35.6 0.00 0.92 0.28 70 1009.0
20260509025818 84 360 15.6 35.6 0.00 0.92 0.28 70 1009.0
20260509025418 84 360 15.6 35.6 0.00 0.92 0.28 70 1009.0
20260509025218 84 360 15.6 35.6 0.00 0.92 0.28 70 1009.0
20260509025019 84 360 15.6 35.6 0.00 0.92 0.28 70 1009.0
20260509024818 84 360 15.6 35.6 0.00 0.92 0.28 70 1009.0
20260509024618 84 360 15.6 35.6 0.00 0.92 0.28 70 1009.0
20260509024418 83 355 16.5 35.6 0.00 0.92 0.28 72 1009.0
20260509024218 83 355 16.5 35.6 0.00 0.92 0.28 72 1009.0
20260509024019 83 355 16.5 35.6 0.00 0.92 0.28 72 1009.0
20260509023819 83 355 16.5 35.6 0.00 0.92 0.28 72 1009.0
20260509023618 83 355 16.5 35.6 0.00 0.92 0.28 72 1009.0
20260509020818 82 346 16.5 33.0 0.00 0.92 0.28 76 1009.0
20260509020618 82 346 16.5 33.0 0.00 0.92 0.28 76 1009.0
20260509020418 82 346 16.5 33.0 0.00 0.92 0.28 76 1009.0
20260509020218 82 346 16.5 33.0 0.00 0.92 0.28 76 1009.0
20260509020022 82 344 15.6 29.5 0.00 0.92 0.28 78 1009.0
20260509015818 82 344 15.6 29.5 0.00 0.92 0.28 78 1009.0
20260509015618 82 344 15.6 29.5 0.00 0.92 0.28 78 1009.0
20260509015418 82 344 15.6 29.5 0.00 0.92 0.28 78 1009.0
20260509015218 82 344 15.6 29.5 0.00 0.92 0.28 78 1009.0
20260509015019 82 344 15.6 29.5 0.00 0.92 0.28 78 1009.0
20260509014715 82 344 15.6 29.5 0.00 0.92 0.28 78 1009.0
20260509014317 81 342 13.9 26.1 0.00 0.92 0.28 80 1009.0
20260509014117 81 342 13.9 26.1 0.00 0.92 0.28 80 1009.0
20260509013917 81 342 13.9 26.1 0.00 0.92 0.28 80 1009.0
20260509013717 81 342 13.9 26.1 0.00 0.92 0.28 80 1009.0
20260509013517 81 342 13.9 26.1 0.00 0.92 0.28 80 1009.0
20260509013317 81 342 13.9 26.1 0.00 0.92 0.28 80 1009.0
20260509013117 81 342 13.9 26.1 0.00 0.92 0.28 80 1009.0
20260509012917 80 339 12.2 21.7 0.00 0.92 0.28 82 1008.0
20260509012717 80 339 12.2 21.7 0.00 0.92 0.28 82 1008.0
20260509012517 80 339 12.2 21.7 0.00 0.92 0.28 82 1008.0
20260509012117 80 339 12.2 21.7 0.00 0.92 0.28 82 1008.0
20260509011917 80 339 12.2 21.7 0.00 0.92 0.28 82 1008.0
20260509011717 80 339 12.2 21.7 0.00 0.92 0.28 82 1008.0
20260509011517 80 339 12.2 21.7 0.00 0.92 0.28 82 1008.0
20260509011317 80 336 10.4 19.1 0.00 0.92 0.28 84 1008.0
20260509011117 80 336 10.4 19.1 0.00 0.92 0.28 84 1008.0
20260509010917 80 336 10.4 19.1 0.00 0.92 0.28 84 1008.0
20260509010717 80 336 10.4 19.1 0.00 0.92 0.28 84 1008.0
20260509010517 80 336 10.4 19.1 0.00 0.92 0.28 84 1008.0
20260509010317 80 336 10.4 19.1 0.00 0.92 0.28 84 1008.0
20260509005917 80 331 8.7 17.4 0.00 0.92 0.28 84 1008.0
20260509005717 80 331 8.7 17.4 0.00 0.92 0.28 84 1008.0
20260509005517 80 331 8.7 17.4 0.00 0.92 0.28 84 1008.0
20260509005317 80 331 8.7 17.4 0.00 0.92 0.28 84 1008.0
20260509005117 80 331 8.7 17.4 0.00 0.92 0.28 84 1008.0
20260509004917 80 331 8.7 17.4 0.00 0.92 0.28 84 1008.0
20260509004717 80 331 8.7 17.4 0.00 0.92 0.28 84 1008.0
20260509004517 80 331 8.7 17.4 0.00 0.92 0.28 84 1008.0
20260509004317 80 326 7.0 16.5 0.00 0.92 0.28 85 1008.0
20260509004119 80 326 7.0 16.5 0.00 0.92 0.28 85 1008.0
20260509003717 80 326 7.0 16.5 0.00 0.92 0.28 85 1008.0
20260509003517 80 326 7.0 16.5 0.00 0.92 0.28 85 1008.0
20260509003317 80 326 7.0 16.5 0.00 0.92 0.28 85 1008.0
20260509003117 80 326 7.0 16.5 0.00 0.92 0.28 85 1008.0
20260509002917 79 319 6.1 16.5 0.00 0.92 0.28 85 1008.0
20260509002717 79 319 6.1 16.5 0.00 0.92 0.28 85 1008.0
20260509002517 79 319 6.1 16.5 0.00 0.92 0.28 85 1008.0
20260509002317 79 319 6.1 16.5 0.00 0.92 0.28 85 1008.0
20260509002117 79 319 6.1 16.5 0.00 0.92 0.28 85 1008.0
20260509001717 79 319 6.1 16.5 0.00 0.92 0.28 85 1008.0
20260509001517 79 319 6.1 16.5 0.00 0.92 0.28 85 1008.0
20260509001317 79 309 5.2 15.6 0.00 0.92 0.28 85 1008.0
20260509001117 79 309 5.2 15.6 0.00 0.92 0.28 85 1008.0
20260509000917 79 323 7.0 15.6 0.00 0.92 0.28 85 1008.0
20260509000717 79 323 7.0 15.6 0.00 0.92 0.28 85 1008.0
20260509000517 79 336 6.1 15.6 0.00 0.92 0.28 85 1008.0
20260509000318 79 336 6.1 10.4 0.00 0.92 0.28 85 1008.0
20260509000118 79 336 6.1 10.4 0.00 0.92 0.28 85 1008.0
20260508235717 80 333 5.2 9.6 0.00 0.92 0.28 84 1007.0
20260508235517 80 333 5.2 9.6 0.00 0.92 0.28 84 1007.0
20260508235317 80 333 5.2 9.6 0.00 0.92 0.28 84 1007.0
20260508235117 80 333 5.2 9.6 0.00 0.92 0.28 84 1007.0
20260508234918 80 333 5.2 9.6 0.00 0.92 0.28 84 1007.0
20260508234717 80 333 5.2 9.6 0.00 0.92 0.28 84 1007.0
20260508234519 80 333 5.2 9.6 0.00 0.92 0.14 83 1007.0
20260508234317 80 333 5.2 9.6 0.00 0.92 0.14 83 1007.0
20260508234117 80 333 5.2 9.6 0.00 0.92 0.14 83 1007.0
20260508233717 80 333 5.2 9.6 0.00 0.92 0.14 83 1007.0
20260508233517 80 333 5.2 9.6 0.00 0.92 0.14 83 1007.0
20260508233317 80 333 5.2 9.6 0.00 0.92 0.14 83 1007.0
20260508233117 80 333 5.2 9.6 0.00 0.92 0.14 83 1007.0
20260508232917 80 333 5.2 10.4 0.00 0.92 0.14 83 1007.0
20260508232717 80 333 5.2 10.4 0.00 0.92 0.14 83 1007.0
20260508232520 80 333 5.2 10.4 0.00 0.92 0.14 83 1007.0
20260508232317 80 333 5.2 10.4 0.00 0.92 0.14 83 1007.0
20260508232117 80 333 5.2 10.4 0.00 0.92 0.14 83 1007.0
20260508231917 80 333 5.2 10.4 0.00 0.92 0.14 83 1007.0
20260508231517 80 333 5.2 10.4 0.00 0.92 0.14 83 1007.0
20260508231317 80 331 6.1 11.3 0.00 0.92 0.14 83 1006.0
20260508231117 80 331 6.1 11.3 0.00 0.92 0.14 83 1006.0
20260508230917 80 331 6.1 11.3 0.00 0.92 0.14 83 1006.0
20260508230717 80 331 6.1 11.3 0.00 0.92 0.14 83 1006.0
20260508230517 80 331 6.1 11.3 0.00 0.92 0.14 83 1006.0
20260508230317 80 331 6.1 11.3 0.00 0.92 0.14 83 1006.0
20260508230117 80 331 6.1 11.3 0.00 0.92 0.14 83 1006.0
20260508225917 80 327 5.2 11.3 0.00 0.92 0.14 83 1006.0
20260508225517 80 327 5.2 11.3 0.00 0.92 0.14 83 1006.0
20260508225317 80 327 5.2 11.3 0.00 0.92 0.14 83 1006.0
20260508225117 80 327 5.2 11.3 0.00 0.92 0.14 83 1006.0
20260508224917 80 327 5.2 11.3 0.00 0.92 0.14 83 1006.0
20260508224717 80 327 5.2 11.3 0.00 0.92 0.14 83 1006.0
20260508224517 80 327 5.2 11.3 0.00 0.92 0.14 83 1006.0
20260508224317 80 319 5.2 11.3 0.00 0.92 0.14 83 1006.0
20260508224117 80 319 5.2 11.3 0.00 0.92 0.14 83 1006.0
20260508223917 80 319 5.2 11.3 0.00 0.92 0.14 83 1006.0
20260508223717 80 319 5.2 11.3 0.00 0.92 0.14 83 1006.0
20260508223317 80 319 5.2 11.3 0.00 0.92 0.14 83 1006.0
20260508223117 80 319 5.2 11.3 0.00 0.92 0.14 83 1006.0
20260508222917 80 311 5.2 11.3 0.00 0.92 0.14 82 1006.0
20260508222717 80 311 5.2 11.3 0.00 0.92 0.14 82 1006.0
20260508222517 80 311 5.2 11.3 0.00 0.92 0.14 82 1006.0
20260508222317 80 311 5.2 11.3 0.00 0.92 0.14 82 1006.0
20260508222117 80 311 5.2 11.3 0.00 0.92 0.14 82 1006.0
20260508221917 80 311 5.2 11.3 0.00 0.92 0.14 82 1006.0
20260508221717 80 311 5.2 11.3 0.00 0.92 0.14 82 1006.0
20260508221518 80 311 5.2 11.3 0.00 0.92 0.14 82 1006.0
20260508221117 80 303 5.2 11.3 0.00 0.92 0.14 82 1006.0
20260508220917 80 303 5.2 11.3 0.00 0.92 0.14 82 1006.0
20260508220717 80 303 5.2 11.3 0.00 0.92 0.14 82 1006.0
20260508220517 80 303 5.2 11.3 0.00 0.92 0.14 82 1006.0
20260508220317 80 303 5.2 11.3 0.00 0.92 0.14 82 1006.0
20260508220117 80 303 5.2 11.3 0.00 0.92 0.14 82 1006.0
20260508215917 80 293 6.1 13.0 0.00 0.92 0.14 82 1006.0
20260508215717 80 293 6.1 13.0 0.00 0.92 0.14 82 1006.0
20260508215517 80 293 6.1 13.0 0.00 0.92 0.14 82 1006.0
20260508215318 80 293 6.1 13.0 0.00 0.92 0.14 82 1006.0
20260508214917 80 293 6.1 13.0 0.00 0.92 0.14 82 1006.0
20260508214717 80 293 6.1 13.0 0.00 0.92 0.14 82 1006.0
20260508214517 80 293 6.1 13.0 0.00 0.92 0.14 82 1006.0
20260508214317 81 279 5.2 13.9 0.00 0.92 0.14 82 1007.0
20260508214117 81 279 5.2 13.9 0.00 0.92 0.14 82 1007.0
20260508213917 81 279 5.2 13.9 0.00 0.92 0.14 82 1007.0
20260508213717 81 279 5.2 13.9 0.00 0.92 0.14 82 1007.0
20260508213519 81 279 5.2 13.9 0.00 0.92 0.14 82 1007.0
20260508213317 81 279 5.2 13.9 0.00 0.92 0.14 82 1007.0
20260508212717 81 267 6.1 15.6 0.00 0.92 0.14 81 1007.0
20260508212517 81 267 6.1 15.6 0.00 0.92 0.14 81 1007.0
20260508212318 81 267 6.1 15.6 0.00 0.92 0.14 81 1007.0
20260508212122 81 267 6.1 15.6 0.00 0.92 0.14 81 1007.0
20260508211917 81 267 6.1 15.6 0.00 0.92 0.14 81 1007.0
20260508211317 81 260 7.0 15.6 0.00 0.92 0.14 81 1007.0
20260508211117 81 260 7.0 15.6 0.00 0.92 0.14 81 1007.0
20260508210917 81 260 7.0 15.6 0.00 0.92 0.14 81 1007.0
20260508210717 81 260 7.0 15.6 0.00 0.92 0.14 81 1007.0
20260508210517 81 260 7.0 15.6 0.00 0.92 0.14 81 1007.0
20260508210317 81 260 7.0 15.6 0.00 0.92 0.14 81 1007.0
20260508210117 81 260 7.0 15.6 0.00 0.92 0.14 81 1007.0
20260508205917 81 257 7.0 15.6 0.00 0.92 0.14 81 1007.0
20260508205717 81 257 7.0 15.6 0.00 0.92 0.14 81 1007.0
20260508205317 81 257 7.0 15.6 0.00 0.92 0.14 81 1007.0
20260508205117 81 257 7.0 15.6 0.00 0.92 0.14 81 1007.0
20260508204917 81 257 7.0 15.6 0.00 0.92 0.14 81 1007.0
20260508204717 81 257 7.0 15.6 0.00 0.92 0.14 81 1007.0
20260508204517 81 257 7.0 15.6 0.00 0.92 0.14 81 1007.0
20260508204317 81 256 8.7 15.6 0.00 0.92 0.14 81 1007.0
20260508204117 81 256 8.7 15.6 0.00 0.92 0.14 81 1007.0
20260508203917 81 256 8.7 15.6 0.00 0.92 0.14 81 1007.0
20260508203717 81 256 8.7 15.6 0.00 0.92 0.14 81 1007.0
20260508203518 81 256 8.7 15.6 0.00 0.92 0.14 81 1007.0
20260508203118 81 256 8.7 15.6 0.00 0.92 0.14 81 1007.0
20260508202918 81 255 8.7 15.6 0.00 0.92 0.14 80 1007.0
20260508202717 81 255 8.7 15.6 0.00 0.92 0.14 80 1007.0
20260508202517 81 255 8.7 15.6 0.00 0.92 0.14 80 1007.0
20260508202317 81 255 8.7 15.6 0.00 0.92 0.14 80 1007.0
20260508202117 81 255 8.7 15.6 0.00 0.92 0.14 80 1007.0
20260508201918 81 255 8.7 15.6 0.00 0.92 0.14 80 1007.0
20260508201718 81 255 8.7 15.6 0.00 0.92 0.14 80 1007.0
20260508201518 81 255 8.7 15.6 0.00 0.92 0.14 80 1007.0
20260508201118 81 257 9.6 15.6 0.00 0.92 0.14 80 1008.0
20260508200917 81 257 9.6 15.6 0.00 0.92 0.14 80 1008.0
20260508200718 81 257 9.6 15.6 0.00 0.92 0.14 80 1008.0
20260508200517 81 257 9.6 15.6 0.00 0.92 0.14 80 1008.0
20260508200318 81 257 9.6 15.6 0.00 0.92 0.14 80 1008.0
20260508200118 81 257 9.6 15.6 0.00 0.92 0.14 80 1008.0
20260508195918 82 261 8.7 15.6 0.00 0.92 0.14 80 1008.0
20260508195717 82 261 8.7 15.6 0.00 0.92 0.14 80 1008.0
20260508195518 82 261 8.7 15.6 0.00 0.92 0.14 80 1008.0
20260508195318 82 261 8.7 15.6 0.00 0.92 0.14 80 1008.0
20260508194917 82 261 8.7 15.6 0.00 0.92 0.14 80 1008.0
20260508194717 82 261 8.7 15.6 0.00 0.92 0.14 80 1008.0
20260508194517 82 261 8.7 15.6 0.00 0.92 0.14 80 1008.0
20260508194317 82 266 7.8 17.4 0.00 0.92 0.14 80 1008.0
20260508194117 82 266 7.8 17.4 0.00 0.92 0.14 80 1008.0
20260508193917 82 266 7.8 17.4 0.00 0.92 0.14 80 1008.0
20260508193717 82 266 7.8 17.4 0.00 0.92 0.14 80 1008.0
20260508193517 82 266 7.8 17.4 0.00 0.92 0.14 80 1008.0
20260508193318 82 266 7.8 17.4 0.00 0.92 0.14 80 1008.0
20260508192917 82 272 7.8 17.4 0.00 0.92 0.14 80 1008.0
20260508192717 82 272 7.8 17.4 0.00 0.92 0.14 80 1008.0
20260508192517 82 272 7.8 17.4 0.00 0.92 0.14 80 1008.0
20260508192317 82 272 7.8 17.4 0.00 0.92 0.14 80 1008.0
20260508192120 82 272 7.8 17.4 0.00 0.92 0.14 80 1008.0
20260508191917 82 272 7.8 17.4 0.00 0.92 0.14 80 1008.0
20260508191717 82 272 7.8 17.4 0.00 0.92 0.14 80 1008.0
20260508191517 82 272 7.8 17.4 0.00 0.92 0.14 80 1008.0
20260508191318 82 279 7.0 18.2 0.00 0.92 0.14 80 1008.0
20260508191118 82 279 7.0 18.2 0.00 0.92 0.14 80 1008.0
20260508190717 82 279 7.0 18.2 0.00 0.92 0.14 80 1008.0
20260508190517 82 279 7.0 18.2 0.00 0.92 0.14 80 1008.0
20260508190317 82 279 7.0 18.2 0.00 0.92 0.14 80 1008.0
20260508190118 82 234 8.7 18.2 0.00 0.92 0.14 80 1008.0
20260508185918 82 240 8.7 18.2 0.00 2.74 0.35 80 1009.0
20260508185717 82 240 8.7 18.2 0.00 2.74 0.35 80 1009.0
20260508185517 82 240 8.7 18.2 0.00 2.74 0.35 80 1009.0
20260508185317 82 240 8.7 18.2 0.00 2.74 0.35 80 1009.0
20260508185117 82 227 6.1 18.2 0.00 2.74 0.35 80 1009.0
20260508184717 82 227 6.1 18.2 0.00 2.74 0.35 80 1009.0
20260508184518 82 227 6.1 18.2 0.00 2.74 0.35 80 1009.0
20260508184318 82 227 5.2 7.8 0.00 2.74 0.35 81 1009.0
20260508184117 82 227 5.2 7.8 0.00 2.74 0.35 81 1009.0
20260508183917 82 227 5.2 7.8 0.00 2.74 0.35 81 1009.0
20260508183718 82 227 5.2 7.8 0.00 2.74 0.35 81 1009.0
20260508183517 82 227 5.2 7.8 0.00 2.74 0.35 81 1009.0
20260508183318 82 227 5.2 7.8 0.00 2.74 0.35 81 1009.0
20260508183117 82 227 5.2 7.8 0.00 2.74 0.35 81 1009.0
20260508182918 82 228 4.3 5.2 0.00 2.74 0.35 80 1009.0
20260508182517 82 228 4.3 5.2 0.00 2.74 0.35 80 1009.0
20260508182318 82 228 4.3 5.2 0.00 0.71 0.31 79 1009.0
20260508182117 82 228 4.3 5.2 0.00 0.71 0.31 79 1009.0
20260508181918 82 228 4.3 5.2 0.00 0.71 0.31 79 1009.0
20260508181717 82 228 4.3 5.2 0.00 0.71 0.31 79 1009.0
20260508181518 82 228 4.3 5.2 0.00 0.71 0.31 79 1009.0
20260508181318 83 228 3.5 4.3 0.00 0.71 0.31 79 1009.0
20260508181118 83 228 3.5 4.3 0.00 0.71 0.31 79 1009.0
20260508180918 83 228 3.5 4.3 0.00 0.71 0.31 79 1009.0
20260508180518 83 228 3.5 4.3 0.00 0.71 0.31 79 1009.0
20260508180322 83 228 3.5 4.3 0.00 0.71 0.31 79 1009.0
20260508180118 83 228 3.5 4.3 0.00 0.71 0.31 79 1009.0
20260508175918 83 229 2.6 5.2 0.00 0.71 0.31 78 1009.0
20260508175718 83 229 2.6 5.2 0.00 0.71 0.31 78 1009.0
20260508175518 83 229 2.6 5.2 0.00 0.71 0.31 78 1009.0
20260508175318 83 229 2.6 5.2 0.00 0.71 0.31 78 1009.0
20260508175118 83 229 2.6 5.2 0.00 0.71 0.31 78 1009.0
20260508174918 83 229 2.6 5.2 0.00 0.71 0.31 78 1009.0
20260508174318 83 219 1.7 6.1 0.00 0.71 0.31 78 1009.0
20260508174118 83 219 1.7 6.1 0.00 0.71 0.31 78 1009.0
20260508173918 83 219 1.7 6.1 0.00 0.71 0.31 78 1009.0
20260508173718 83 219 1.7 6.1 0.00 0.71 0.31 78 1009.0
20260508173518 83 219 1.7 6.1 0.00 0.71 0.31 78 1009.0
20260508173318 83 219 1.7 6.1 0.00 0.71 0.31 78 1009.0
20260508173118 83 219 1.7 6.1 0.00 0.71 0.31 78 1009.0
20260508172918 83 225 0.9 7.8 0.00 0.71 0.31 77 1009.0
20260508172718 83 225 0.9 7.8 0.00 0.71 0.31 77 1009.0
20260508171718 83 225 0.9 7.8 0.00 0.71 0.31 77 1009.0
20260508171318 84 243 0.0 8.7 0.00 0.71 0.31 76 1009.0
20260508170518 84 243 0.0 8.7 0.00 0.71 0.31 76 1009.0
20260508170118 84 243 0.0 8.7 0.00 0.71 0.31 76 1009.0
20260508165918 84 297 0.9 8.7 0.00 0.71 0.31 75 1009.0
20260508165718 84 297 0.9 8.7 0.00 0.71 0.31 75 1009.0
20260508165518 84 297 0.9 8.7 0.00 0.71 0.31 75 1009.0
20260508165318 84 297 0.9 8.7 0.00 0.71 0.31 75 1009.0
20260508165118 84 297 0.9 8.7 0.00 0.71 0.31 75 1009.0
20260508164918 84 297 0.9 8.7 0.00 0.71 0.31 75 1009.0
20260508164718 84 297 0.9 8.7 0.00 0.71 0.31 75 1009.0
20260508164518 84 297 0.9 8.7 0.00 0.71 0.31 75 1009.0
20260508164318 84 306 1.7 8.7 0.00 0.71 0.31 74 1009.0
20260508163918 84 306 1.7 8.7 0.00 0.71 0.31 74 1009.0
20260508163718 84 306 1.7 8.7 0.00 0.71 0.31 74 1009.0
20260508163518 84 306 1.7 8.7 0.00 0.71 0.31 74 1009.0
20260508163318 84 306 1.7 8.7 0.00 0.71 0.31 74 1009.0
20260508163118 84 306 1.7 8.7 0.00 0.71 0.31 74 1009.0
20260508162918 85 309 3.5 8.7 0.00 0.71 0.31 73 1008.0
20260508162718 85 309 3.5 8.7 0.00 0.71 0.31 73 1008.0
20260508162518 85 309 3.5 8.7 0.00 0.71 0.31 73 1008.0
20260508162318 85 309 3.5 8.7 0.00 0.71 0.31 73 1008.0
20260508162118 85 309 3.5 8.7 0.00 0.71 0.31 73 1008.0
20260508161718 85 309 3.5 8.7 0.00 0.71 0.31 73 1008.0
20260508161518 85 309 3.5 8.7 0.00 0.71 0.31 73 1008.0
20260508161318 85 310 4.3 8.7 0.00 0.71 0.31 72 1008.0
20260508161118 85 310 4.3 8.7 0.00 0.71 0.31 72 1008.0
20260508160918 85 310 4.3 8.7 0.00 0.71 0.31 72 1008.0
20260508160718 85 310 4.3 8.7 0.00 0.71 0.31 72 1008.0
20260508160518 85 310 4.3 8.7 0.00 0.71 0.31 72 1008.0
20260508160318 85 310 4.3 8.7 0.00 0.71 0.31 72 1008.0
20260508160118 85 310 4.3 8.7 0.00 0.71 0.31 72 1008.0
20260508155718 85 310 4.3 9.6 0.00 0.71 0.31 72 1008.0
20260508155518 85 310 4.3 9.6 0.00 0.71 0.31 72 1008.0
20260508155318 85 310 4.3 9.6 0.00 0.71 0.31 72 1008.0
20260508155118 85 310 4.3 9.6 0.00 0.71 0.31 72 1008.0
20260508154918 85 310 4.3 9.6 0.00 0.71 0.31 72 1008.0
20260508154718 85 310 4.3 9.6 0.00 0.71 0.31 72 1008.0
20260508154518 85 310 4.3 9.6 0.00 0.71 0.31 72 1008.0
20260508154318 86 306 3.5 9.6 0.00 0.71 0.31 72 1008.0
20260508154118 86 306 3.5 9.6 0.00 0.71 0.31 72 1008.0
20260508153718 86 306 3.5 9.6 0.00 0.71 0.31 72 1008.0
20260508153518 86 306 3.5 9.6 0.00 0.71 0.31 72 1008.0
20260508153318 86 306 3.5 9.6 0.00 0.71 0.31 72 1008.0
20260508153118 86 306 3.5 9.6 0.00 0.71 0.31 72 1008.0
20260508152918 86 304 2.6 11.3 0.00 0.71 0.31 72 1008.0
20260508152718 86 304 2.6 11.3 0.00 0.71 0.31 72 1008.0
20260508152518 86 304 2.6 11.3 0.00 0.71 0.31 72 1008.0
20260508152318 86 304 2.6 11.3 0.00 0.71 0.31 72 1008.0
20260508152118 86 304 2.6 11.3 0.00 0.71 0.31 72 1008.0
20260508151919 86 304 2.6 11.3 0.00 0.71 0.31 72 1008.0
20260508151518 86 304 2.6 11.3 0.00 0.71 0.31 72 1008.0
20260508151318 86 294 2.6 12.2 0.00 0.71 0.31 71 1008.0
20260508151118 86 294 2.6 12.2 0.00 0.71 0.31 71 1008.0
20260508150918 86 294 2.6 12.2 0.00 0.71 0.31 71 1008.0
20260508150718 86 294 2.6 12.2 0.00 0.71 0.31 71 1008.0
20260508150518 86 294 2.6 12.2 0.00 0.71 0.31 71 1008.0
20260508150318 86 294 2.6 12.2 0.00 0.71 0.31 71 1008.0
20260508150118 86 294 2.6 12.2 0.00 0.71 0.31 71 1008.0
20260508145918 86 280 2.6 13.9 0.00 0.71 0.31 69 1008.0
20260508145518 86 280 2.6 13.9 0.00 0.71 0.31 69 1008.0
20260508145318 86 280 2.6 13.9 0.00 0.71 0.31 69 1008.0
20260508145118 86 280 2.6 13.9 0.00 0.71 0.31 69 1008.0
20260508144918 86 280 2.6 13.9 0.00 0.71 0.31 69 1008.0
20260508144718 86 280 2.6 13.9 0.00 0.71 0.31 69 1008.0
20260508144518 86 280 2.6 13.9 0.00 0.71 0.31 69 1008.0
20260508144318 87 266 3.5 15.6 0.00 0.71 0.31 66 1008.0
20260508144118 87 266 3.5 15.6 0.00 0.71 0.31 66 1008.0
20260508143918 87 266 3.5 15.6 0.00 0.71 0.31 66 1008.0
20260508143718 87 266 3.5 15.6 0.00 0.71 0.31 66 1008.0
20260508143318 87 266 3.5 15.6 0.00 0.71 0.31 66 1008.0
20260508143118 87 266 3.5 15.6 0.00 0.71 0.31 66 1008.0
20260508142918 87 257 5.2 16.5 0.00 0.71 0.31 64 1007.0
20260508142718 87 257 5.2 16.5 0.00 0.71 0.31 64 1007.0
20260508142518 87 257 5.2 16.5 0.00 0.71 0.31 64 1007.0
20260508142318 87 257 5.2 16.5 0.00 0.71 0.31 64 1007.0
20260508142118 87 257 5.2 16.5 0.00 0.71 0.31 64 1007.0
20260508141918 87 257 5.2 16.5 0.00 0.71 0.31 64 1007.0
20260508141718 87 257 5.2 16.5 0.00 0.71 0.31 64 1007.0
20260508141318 88 250 5.2 17.4 0.01 0.71 0.31 61 1007.0
20260508141118 88 250 5.2 17.4 0.01 0.71 0.31 61 1007.0
20260508140918 88 250 5.2 17.4 0.01 0.71 0.31 61 1007.0
20260508140718 88 250 5.2 17.4 0.01 0.71 0.31 61 1007.0
20260508140518 88 250 5.2 17.4 0.01 0.71 0.31 61 1007.0
20260508140318 88 250 5.2 17.4 0.01 0.71 0.31 61 1007.0
20260508140119 88 250 5.2 17.4 0.01 0.71 0.31 61 1007.0
20260508135918 89 241 6.1 18.2 0.01 0.71 0.31 59 1007.0
20260508135718 89 241 6.1 18.2 0.01 0.71 0.31 59 1007.0
20260508135519 89 241 6.1 18.2 0.01 0.71 0.31 59 1007.0
20260508133318 89 231 6.1 18.2 0.01 0.71 0.31 57 1006.0
20260508133122 90 219 6.1 19.1 0.01 0.71 0.31 56 1006.0
20260508132918 90 219 6.1 19.1 0.01 0.71 0.31 56 1006.0
20260508132718 90 219 6.1 19.1 0.01 0.71 0.31 56 1006.0
20260508132518 90 219 6.1 19.1 0.01 0.71 0.31 56 1006.0
20260508132118 90 219 6.1 19.1 0.01 0.71 0.31 56 1006.0
20260508131918 90 219 6.1 19.1 0.01 0.71 0.31 56 1006.0
20260508131718 90 219 6.1 19.1 0.01 0.71 0.31 56 1006.0
20260508131518 90 219 6.1 19.1 0.01 0.71 0.31 56 1006.0
20260508131318 90 208 6.1 20.0 0.00 0.71 0.31 54 1006.0
20260508131118 90 208 6.1 20.0 0.00 0.71 0.31 54 1006.0
20260508130918 90 208 6.1 20.0 0.00 0.71 0.31 54 1006.0
20260508130718 90 208 6.1 20.0 0.00 0.71 0.31 54 1006.0
20260508130518 90 208 6.1 20.0 0.00 0.71 0.31 54 1006.0
20260508130319 90 208 6.1 20.0 0.00 0.71 0.31 54 1006.0
20260508125918 91 200 7.0 22.6 0.00 0.71 0.31 53 1006.0
20260508125718 91 200 7.0 22.6 0.00 0.71 0.31 53 1006.0
20260508125518 91 200 7.0 22.6 0.00 0.71 0.31 53 1006.0
20260508125318 91 200 7.0 22.6 0.00 0.71 0.31 53 1006.0
20260508125118 91 200 7.0 22.6 0.00 0.71 0.31 53 1006.0
20260508124918 91 200 7.0 22.6 0.00 0.71 0.31 53 1006.0
20260508124718 91 200 7.0 22.6 0.00 0.71 0.31 53 1006.0
20260508124518 91 200 7.0 22.6 0.00 0.71 0.31 53 1006.0
20260508124318 91 196 7.8 26.1 0.00 0.71 0.31 53 1005.0
20260508123922 91 196 7.8 26.1 0.00 0.71 0.31 53 1005.0
20260508123720 91 189 13.9 26.1 0.00 0.71 0.31 53 1005.0
20260508123518 91 189 13.9 26.1 0.00 0.71 0.31 53 1005.0
20260508123318 91 189 13.9 26.1 0.00 0.71 0.31 53 1005.0
20260508123118 91 189 13.9 26.1 0.00 0.71 0.31 53 1005.0
20260508122918 91 186 11.3 28.7 0.00 0.71 0.31 52 1005.0
20260508122718 91 184 11.3 28.7 0.00 0.71 0.31 52 1005.0
20260508122518 91 184 11.3 28.7 0.00 0.71 0.31 52 1005.0
20260508122318 91 184 11.3 28.7 0.00 0.71 0.31 52 1005.0
20260508121918 91 184 11.3 29.5 0.00 0.71 0.31 52 1005.0
20260508121718 91 184 11.3 29.5 0.00 0.71 0.31 52 1005.0
20260508121518 91 184 11.3 29.5 0.00 0.71 0.31 52 1005.0
20260508121318 91 180 9.6 30.4 0.00 0.71 0.31 52 1005.0
20260508121118 91 180 9.6 30.4 0.00 0.71 0.31 52 1005.0
20260508120918 92 180 9.6 30.4 0.00 0.71 0.31 50 1005.0
20260508120718 92 180 9.6 30.4 0.00 0.71 0.31 50 1005.0
20260508120518 92 180 9.6 30.4 0.00 0.71 0.31 50 1005.0
20260508120318 92 180 9.6 30.4 0.00 0.71 0.31 50 1005.0
20260508120119 92 180 9.6 30.4 0.00 0.71 0.31 50 1005.0
20260508115718 92 172 8.7 33.0 0.00 1.94 0.71 48 1004.0
20260508115518 92 172 8.7 33.0 0.00 1.94 0.71 48 1004.0
20260508115318 92 172 8.7 33.0 0.00 1.94 0.71 48 1004.0
20260508115118 92 172 8.7 33.0 0.00 1.94 0.71 48 1004.0
20260508114918 92 172 8.7 33.0 0.00 1.94 0.71 48 1004.0
20260508114718 92 172 8.7 33.0 0.00 1.94 0.71 48 1004.0
20260508114518 92 172 8.7 33.0 0.00 1.94 0.71 48 1004.0
20260508114318 92 157 7.8 35.6 0.00 1.94 0.71 49 1004.0
20260508114118 92 157 7.8 35.6 0.00 1.94 0.71 49 1004.0
20260508113919 92 157 7.8 35.6 0.00 1.94 0.71 49 1004.0
20260508113518 92 157 7.8 35.6 0.00 1.94 0.71 49 1004.0
20260508113318 92 157 7.8 35.6 0.00 1.94 0.71 49 1004.0
20260508113118 92 157 7.8 35.6 0.00 1.94 0.71 49 1004.0
20260508112918 92 141 7.0 39.1 0.00 1.94 0.71 49 1004.0
20260508112718 92 141 7.0 39.1 0.00 1.94 0.71 49 1004.0
20260508112518 92 141 7.0 39.1 0.00 1.94 0.71 49 1004.0
20260508112318 92 141 7.0 39.1 0.00 1.94 0.71 49 1004.0
20260508112118 92 141 7.0 39.1 0.00 1.94 0.71 49 1004.0
20260508111918 92 141 7.0 39.1 0.00 1.94 0.71 49 1004.0
20260508111518 92 141 7.0 39.1 0.00 1.94 0.71 49 1004.0
20260508111318 92 123 7.8 40.0 0.00 1.94 0.71 49 1004.0
20260508111118 92 123 7.8 40.0 0.00 1.94 0.71 49 1004.0
20260508110922 92 123 7.8 40.0 0.00 1.94 0.71 49 1004.0
20260508110718 92 123 7.8 40.0 0.00 1.94 0.71 49 1004.0
20260508110518 92 123 7.8 40.0 0.00 1.94 0.71 49 1004.0
20260508110318 92 123 7.8 40.0 0.00 1.94 0.71 49 1004.0
20260508110118 92 123 7.8 40.0 0.00 1.94 0.71 49 1004.0
20260508105918 93 108 9.6 40.0 0.00 1.94 0.71 47 1004.0
20260508105718 93 108 9.6 40.0 0.00 1.94 0.71 47 1004.0
20260508105318 93 108 9.6 40.0 0.00 1.94 0.71 47 1004.0
20260508105118 93 108 9.6 40.0 0.00 1.94 0.71 47 1004.0
20260508104918 93 108 9.6 40.0 0.00 1.94 0.71 47 1004.0
20260508104718 93 108 9.6 40.0 0.00 1.94 0.71 47 1004.0
20260508104518 93 108 9.6 40.0 0.00 1.94 0.71 47 1004.0
20260508104318 95 97 11.3 38.2 0.00 1.94 0.71 44 1004.0
20260508104118 95 97 11.3 38.2 0.00 1.94 0.71 44 1004.0
20260508103918 95 97 11.3 38.2 0.00 1.94 0.71 44 1004.0
20260508103718 95 97 11.3 38.2 0.00 1.94 0.71 44 1004.0
20260508103318 95 97 11.3 38.2 0.00 1.94 0.71 44 1004.0
20260508103118 95 97 11.3 38.2 0.00 1.94 0.71 44 1004.0
20260508102918 96 91 13.9 35.6 0.00 1.94 0.71 42 1003.0
20260508102718 96 91 13.9 35.6 0.00 1.94 0.71 42 1003.0
20260508102518 96 91 13.9 35.6 0.00 1.94 0.71 42 1003.0
20260508102318 96 91 13.9 35.6 0.00 1.94 0.71 42 1003.0
20260508102118 96 91 13.9 35.6 0.00 1.94 0.71 42 1003.0
20260508101918 96 91 13.9 35.6 0.00 1.94 0.71 42 1003.0
20260508101718 96 91 13.9 35.6 0.00 1.94 0.71 42 1003.0
20260508101527 96 91 13.9 35.6 0.00 1.94 0.71 42 1003.0
20260508101118 97 88 14.8 33.9 0.00 1.94 0.71 40 1003.0
20260508100918 97 88 14.8 33.9 0.00 1.94 0.71 40 1003.0
20260508100718 97 88 14.8 33.9 0.00 1.94 0.71 40 1003.0
20260508100519 97 88 14.8 33.9 0.00 1.94 0.71 40 1003.0
20260508100318 97 88 14.8 33.9 0.00 1.94 0.71 40 1003.0
20260508100118 97 88 14.8 33.9 0.00 1.94 0.71 40 1003.0
20260508095918 98 85 13.9 33.0 0.00 1.94 0.71 39 1003.0
20260508095718 98 85 13.9 33.0 0.00 1.94 0.71 39 1003.0
20260508095518 98 85 13.9 33.0 0.00 1.94 0.71 39 1003.0
20260508095118 98 85 13.9 33.0 0.00 1.94 0.71 39 1003.0
20260508094918 98 85 13.9 33.0 0.00 1.94 0.71 39 1003.0
20260508094718 98 85 13.9 33.0 0.00 1.94 0.71 39 1003.0
20260508094518 98 85 13.9 33.0 0.00 1.94 0.71 39 1003.0
20260508094318 98 83 12.2 32.2 0.00 1.94 0.71 38 1004.0
20260508094118 98 83 12.2 32.2 0.00 1.94 0.71 38 1004.0
20260508093918 98 83 12.2 32.2 0.00 1.94 0.71 38 1004.0
20260508093718 98 83 12.2 32.2 0.00 1.94 0.71 38 1004.0
20260508093519 98 83 12.2 32.2 0.00 1.94 0.71 38 1004.0
20260508093318 98 83 12.2 32.2 0.00 1.94 0.71 38 1004.0
20260508092918 99 82 10.4 32.2 0.00 1.94 0.71 38 1004.0
20260508092718 99 82 10.4 32.2 0.00 1.94 0.71 38 1004.0
20260508092518 99 82 10.4 32.2 0.00 1.94 0.71 38 1004.0
20260508092318 99 82 10.4 32.2 0.00 1.94 0.71 38 1004.0
20260508092118 99 82 10.4 32.2 0.00 1.94 0.71 38 1004.0
20260508091919 99 82 10.4 32.2 0.00 1.94 0.71 38 1004.0
20260508091719 99 82 10.4 32.2 0.00 1.94 0.71 38 1004.0
20260508091518 99 82 10.4 32.2 0.00 1.94 0.71 38 1004.0
20260508091318 99 82 7.8 32.2 0.00 1.94 0.71 38 1004.0
20260508091119 99 82 7.8 32.2 0.00 1.94 0.71 38 1004.0
20260508090718 99 82 7.8 32.2 0.00 1.94 0.71 38 1004.0
20260508090518 99 82 7.8 32.2 0.00 1.94 0.71 38 1004.0
20260508090318 99 82 7.8 32.2 0.00 1.94 0.71 38 1004.0
20260508090118 99 82 7.8 32.2 0.00 1.94 0.71 38 1004.0
20260508085918 99 85 6.1 32.2 0.00 1.94 0.71 39 1004.0
20260508085718 99 85 6.1 32.2 0.00 1.94 0.71 39 1004.0
20260508085518 99 85 6.1 32.2 0.00 1.94 0.71 39 1004.0
20260508085318 99 85 6.1 32.2 0.00 1.94 0.71 39 1004.0
20260508085118 99 85 6.1 32.2 0.00 1.94 0.71 39 1004.0
20260508084718 99 85 6.1 32.2 0.00 1.94 0.71 39 1004.0
20260508084518 99 85 6.1 32.2 0.00 1.94 0.71 39 1004.0
20260508084318 98 97 5.2 31.3 0.00 1.94 0.71 40 1005.0
20260508084118 98 97 5.2 31.3 0.00 1.94 0.71 40 1005.0
20260508083918 98 97 5.2 31.3 0.00 1.94 0.71 40 1005.0
20260508083718 98 97 5.2 31.3 0.00 1.94 0.71 40 1005.0
20260508083518 98 97 5.2 31.3 0.00 1.94 0.71 40 1005.0
20260508083318 98 97 5.2 31.3 0.00 1.94 0.71 40 1005.0
20260508083118 98 97 5.2 31.3 0.00 1.94 0.71 40 1005.0
20260508082918 98 113 3.5 32.2 0.00 1.94 0.71 41 1005.0
20260508082518 98 113 3.5 32.2 0.00 1.94 0.71 41 1005.0
20260508082318 98 113 3.5 32.2 0.00 1.94 0.71 41 1005.0
20260508082118 98 113 3.5 32.2 0.00 1.94 0.71 41 1005.0
20260508081918 98 113 3.5 32.2 0.00 1.94 0.71 41 1005.0
20260508081718 98 113 3.5 32.2 0.00 1.94 0.71 41 1005.0
20260508081518 98 113 3.5 32.2 0.00 1.94 0.71 41 1005.0
20260508081318 97 122 2.6 32.2 0.00 1.94 0.71 41 1006.0
20260508081118 97 122 2.6 32.2 0.00 1.94 0.71 41 1006.0
20260508080918 97 122 2.6 32.2 0.00 1.94 0.71 41 1006.0
20260508080719 97 122 2.6 32.2 0.00 1.94 0.71 41 1006.0
20260508080318 97 122 2.6 32.2 0.00 1.94 0.71 41 1006.0
20260508080118 97 122 2.6 32.2 0.00 1.94 0.71 41 1006.0
20260508075918 97 112 0.9 33.9 0.00 1.94 0.71 42 1006.0
20260508075718 97 112 0.9 33.9 0.00 1.94 0.71 42 1006.0
20260508075518 97 112 0.9 33.9 0.00 1.94 0.71 42 1006.0
20260508075323 97 112 0.9 33.9 0.00 1.94 0.71 42 1006.0
20260508075118 97 112 0.9 33.9 0.00 1.94 0.71 42 1006.0
20260508074918 97 112 0.9 33.9 0.00 1.94 0.71 42 1006.0
20260508074719 97 112 0.9 33.9 0.00 1.94 0.71 42 1006.0
20260508074319 96 27 0.9 36.5 0.00 1.94 0.71 43 1006.0
20260508074118 96 27 0.9 36.5 0.00 1.94 0.71 43 1006.0
20260508073918 96 27 0.9 36.5 0.00 1.94 0.71 43 1006.0
20260508073718 96 27 0.9 36.5 0.00 1.94 0.71 43 1006.0
20260508073518 96 27 0.9 36.5 0.00 1.94 0.71 43 1006.0
20260508073318 96 27 0.9 36.5 0.00 1.94 0.71 43 1006.0
20260508073118 96 27 0.9 36.5 0.00 1.94 0.71 43 1006.0
20260508072918 96 360 2.6 39.1 0.00 1.94 0.71 44 1007.0
20260508072718 96 360 2.6 39.1 0.00 1.94 0.71 44 1007.0
20260508072519 96 360 2.6 39.1 0.00 1.94 0.71 44 1007.0
20260508072118 96 360 2.6 39.1 0.00 1.94 0.71 44 1007.0
20260508071918 96 360 2.6 39.1 0.00 1.94 0.71 44 1007.0
20260508071718 96 360 2.6 39.1 0.00 1.94 0.71 44 1007.0
20260508071518 96 360 2.6 39.1 0.00 1.94 0.71 44 1007.0
20260508071318 95 350 5.2 40.8 0.00 1.94 0.71 44 1007.0
20260508071118 95 350 5.2 40.8 0.00 1.94 0.71 44 1007.0
20260508070918 95 350 5.2 40.8 0.00 1.94 0.71 44 1007.0
20260508070718 95 350 5.2 40.8 0.00 1.94 0.71 44 1007.0
20260508070519 95 350 5.2 40.8 0.00 1.94 0.71 44 1007.0
20260508070118 95 350 5.2 40.8 0.00 1.94 0.71 44 1007.0
20260508065918 95 344 6.1 41.7 0.00 1.94 0.71 46 1007.0
20260508065718 95 344 6.1 41.7 0.00 1.94 0.71 46 1007.0
20260508065518 95 344 6.1 41.7 0.00 1.94 0.71 46 1007.0
20260508065318 95 344 6.1 41.7 0.00 1.94 0.71 46 1007.0
20260508065118 95 304 1.7 41.7 0.00 1.94 0.71 46 1007.0
20260508064918 95 304 1.7 41.7 0.00 1.94 0.71 46 1007.0
20260508064718 95 304 1.7 41.7 0.00 1.94 0.71 46 1007.0
20260508064518 95 304 1.7 41.7 0.00 1.94 0.71 46 1007.0
20260508064118 94 270 0.0 41.7 0.00 1.94 0.71 47 1007.0
20260508063918 94 270 0.0 41.7 0.00 1.94 0.71 47 1007.0
20260508063718 94 270 0.0 41.7 0.00 1.94 0.71 47 1007.0
20260508063518 94 270 0.0 29.5 0.00 1.94 0.71 47 1007.0
20260508063318 94 270 0.0 29.5 0.00 1.94 0.71 47 1007.0
20260508063119 94 270 0.0 29.5 0.00 1.94 0.71 47 1007.0
20260508062918 93 233 0.9 29.5 0.00 1.94 0.71 48 1008.0
20260508062718 93 233 0.9 29.5 0.00 1.94 0.71 48 1008.0
20260508062518 93 233 0.9 29.5 0.00 1.94 0.71 48 1008.0
20260508062320 93 233 0.9 29.5 0.00 1.94 0.71 49 1008.0
20260508061918 93 233 0.9 29.5 0.00 0.09 0.29 50 1008.0
20260508061718 93 233 0.9 29.5 0.00 0.09 0.29 50 1008.0
20260508061518 93 233 0.9 29.5 0.00 0.09 0.29 50 1008.0
20260508061318 92 240 1.7 30.4 0.00 0.09 0.29 51 1008.0
20260508061118 92 240 1.7 30.4 0.00 0.09 0.29 51 1008.0
20260508060918 92 240 1.7 30.4 0.00 0.09 0.29 51 1008.0
20260508060718 92 240 1.7 30.4 0.00 0.09 0.29 51 1008.0
20260508060518 92 240 1.7 30.4 0.00 0.09 0.29 51 1008.0
20260508060318 92 240 1.7 30.4 0.00 0.09 0.29 51 1008.0
20260508055918 92 264 2.6 32.2 0.00 0.09 0.29 51 1009.0
20260508055718 92 264 2.6 32.2 0.00 0.09 0.29 51 1009.0
20260508055518 92 264 2.6 32.2 0.00 0.09 0.29 51 1009.0
20260508055318 92 264 2.6 32.2 0.00 0.09 0.29 51 1009.0
20260508055118 92 264 2.6 32.2 0.00 0.09 0.29 51 1009.0
20260508054918 92 264 2.6 32.2 0.00 0.09 0.29 51 1009.0
20260508054718 92 264 2.6 32.2 0.00 0.09 0.29 51 1009.0
20260508054521 92 264 2.6 32.2 0.00 0.09 0.29 51 1009.0
20260508054318 91 292 2.6 33.0 0.00 0.09 0.29 52 1009.0
20260508054119 91 292 2.6 33.0 0.00 0.09 0.29 52 1009.0
20260508053718 91 292 2.6 33.0 0.00 0.09 0.29 52 1009.0
20260508053518 91 292 2.6 33.0 0.00 0.09 0.29 52 1009.0
20260508053318 91 292 2.6 33.0 0.00 0.09 0.29 52 1009.0
20260508053118 91 292 2.6 33.0 0.00 0.09 0.29 52 1009.0
20260508052918 91 318 4.3 34.8 0.00 0.09 0.29 53 1009.0
20260508052718 91 318 4.3 34.8 0.00 0.09 0.29 53 1009.0
20260508052518 91 318 4.3 34.8 0.00 0.09 0.29 53 1009.0
20260508052318 91 318 4.3 34.8 0.00 0.09 0.29 53 1009.0
20260508052118 91 318 4.3 34.8 0.00 0.09 0.29 53 1009.0
20260508051919 91 318 4.3 34.8 0.00 0.09 0.29 53 1009.0
20260508051518 91 318 4.3 34.8 0.00 0.09 0.29 53 1009.0
20260508051318 90 325 5.2 35.6 0.00 0.09 0.29 54 1009.0
20260508051118 90 325 5.2 35.6 0.00 0.09 0.29 54 1009.0
20260508050919 90 325 5.2 35.6 0.00 0.09 0.29 54 1009.0
20260508050718 90 325 5.2 35.6 0.00 0.09 0.29 54 1009.0
20260508050519 90 325 5.2 35.6 0.00 0.09 0.29 54 1009.0
20260508050319 90 325 5.2 35.6 0.00 0.09 0.29 54 1009.0
20260508050119 90 325 5.2 35.6 0.00 0.09 0.29 54 1009.0
20260508045919 89 330 7.0 34.8 0.00 0.09 0.29 56 1009.0
20260508045518 89 330 7.0 34.8 0.00 0.09 0.29 56 1009.0